Regional Weather Roundup
Issued by NWS

Home | Current Version | Previous Version | Text Only | Print | Product List | Glossary On
Versions: 1 2 3 4 5 6 7 8 9 10 11 12 13 14 15 16 17 18 19 20 21 22 23 24 25 26 27 28 29 30 31 32 33 34 35 36 37 38 39 40 41 42 43 44 45 46 47 48 49 50
000
ASUS43 KOAX 162010
RWRNE

WEATHER ROUNDUP FOR NEBRASKA
NATIONAL WEATHER SERVICE OMAHA NE
200 PM CST SAT DEC 16 2017

NOTES: SATELLITE DATA IS BEING USED TO AUGMENT CLOUD COVER ABOVE
       12000 FEET.
       "FAIR" INDICATES FEW OR NO CLOUDS BELOW 12,000 FEET WITH NO
       SIGNIFICANT WEATHER AND/OR OBSTRUCTIONS TO VISIBILITY.


NEZ001>004-019>022-054>056-162100-
NEBRASKA PANHANDLE

CITY           SKY/WX    TMP DP  RH WIND       PRES   REMARKS
SCOTTSBLUFF    SUNNY     43  29  57 E12       29.87F
ALLIANCE       CLOUDY    36  29  75 NE18      29.87F WCI  26
CHADRON        CLOUDY    39  28  64 NE13      29.90F WCI  31
GORDON         CLOUDY    37  30  78 NE13      29.89F WCI  28
KIMBALL        SUNNY     43  20  39 E13G20    29.83F
SIDNEY         CLOUDY    46  23  40 NE17      29.83F
$$

NEZ057>060-069>072-079>082-162100-
SOUTHWEST NEBRASKA

CITY           SKY/WX    TMP DP  RH WIND       PRES   REMARKS
NORTH PLATTE   CLOUDY    47  29  49 N13       29.83S
IMPERIAL       CLOUDY    50  28  42 NE22      29.80S
LEXINGTON      CLOUDY    51  28  40 NE17      29.81F
MCCOOK         CLOUDY    55  23  28 NE22G31   29.77F
OGALLALA       CLOUDY    46  28  49 NE17      29.85R
$$

NEZ005>010-023>029-035>040-094-162100-
NORTH CENTRAL NEBRASKA

CITY           SKY/WX    TMP DP  RH WIND       PRES   REMARKS
VALENTINE      CLOUDY    40  32  73 N10       29.91F WCI  33
AINSWORTH      CLOUDY    38  34  84 N15G22    29.91R WCI  30
BROKEN BOW     CLOUDY    45  29  53 N12       29.84R
O`NEILL        PTSUNNY   43  33  67 N9        29.89S
ORD            CLOUDY    44  29  55 NE15      29.85R
THEDFORD       CLOUDY    41  34  76 N14G22    29.88R
$$

NEZ041-046>049-061>064-073>077-083>087-162100-
SOUTH CENTRAL NEBRASKA

CITY           SKY/WX    TMP DP  RH WIND       PRES   REMARKS
GRAND ISLAND   CLOUDY    52  30  43 NE16      29.83R
AURORA         SUNNY     51  27  39 NE14      29.82S
HASTINGS       CLOUDY    53  24  32 E15       29.82S
HEBRON         SUNNY     55  21  27 NE7       29.80F
HOLDREGE       CLOUDY    54  27  35 NE20      29.79S
KEARNEY        CLOUDY    53  26  35 NE18      29.81S
YORK           SUNNY     54  27  35 NE14      29.83R
$$

NEZ011>018-030>034-042>045-162100-
NORTHEAST NEBRASKA

CITY           SKY/WX    TMP DP  RH WIND       PRES   REMARKS
NORFOLK        MOSUNNY   48  29  47 N12       29.84F
ALBION         MOSUNNY   46  30  54 N14       29.86R
BLAIR          MOSUNNY   51  29  42 N9        29.83S
COLUMBUS       MOSUNNY   52  30  43 N17       29.83F
FREMONT        CLOUDY    51  27  39 N9        29.84S
TEKAMAH        MOSUNNY   52  27  38 N14       29.84F
WAYNE          MOSUNNY   47  29  49 N8        29.87R
$$

NEZ050>053-065>068-078-088>093-162100-
SOUTHEAST NEBRASKA

CITY           SKY/WX    TMP DP  RH WIND       PRES   REMARKS
LINCOLN        CLOUDY    55  24  30 NE8       29.85R
OMAHA EPPLEY   PTSUNNY   51  25  36 N13       29.83F
BEATRICE       SUNNY     53  25  33 CALM      29.82F
FALLS CITY     SUNNY     54  24  31 VRB5      29.84S
NEBRASKA CITY  SUNNY     52  26  35 CALM      29.84S
PLATTSMOUTH    MOSUNNY   53  26  35 CALM      29.83R
$$

NEZ044-045-051>053-067-162100-
OMAHA AREA

CITY           SKY/WX    TMP DP  RH WIND       PRES   REMARKS
OMAHA EPPLEY   PTSUNNY   51  25  36 N13       29.83F
BLAIR          MOSUNNY   51  29  42 N9        29.83S
FREMONT        CLOUDY    51  27  39 N9        29.84S
MILLARD        MOSUNNY   56  28  33 N3        29.83S
OFFUTT AFB     CLOUDY    55  24  30 NE9       29.81F
PLATTSMOUTH    MOSUNNY   53  26  35 CALM      29.83R
WAHOO          FAIR      55  25  31 N16       29.82F
$$



USA.gov is the U.S. government's official web portal to all federal, state and local government web resources and services.